CW0641 Weather Reports


Display with metric or nautical units.
time (UTC)temp
F
wind
direction
speed
MPH
gust
MPH
rain 1hr
in
rain 24hr
in
rain mn
in
humidity
%
barometer
mb
20260510100501 79 298 5.0 11.0 0.00 0.00 0.00 38 1015.9
20260510100143 79 5 5.0 11.0 0.00 0.00 0.00 38 1015.9
20260510095457 79 342 4.0 11.0 0.00 0.00 0.00 39 1015.8
20260510095140 79 342 5.0 12.0 0.00 0.00 0.00 39 1015.8
20260510094457 78 337 5.0 12.0 0.00 0.00 0.00 38 1015.9
20260510094135 78 31 5.0 12.0 0.00 0.00 0.00 38 1015.9
20260510093458 79 345 5.0 12.0 0.00 0.00 0.00 38 1015.9
20260510093136 78 336 6.0 10.0 0.00 0.00 0.00 38 1016.0
20260510092500 78 349 6.0 12.0 0.00 0.00 0.00 38 1015.9
20260510092137 78 267 6.0 13.0 0.00 0.00 0.00 38 1016.0
20260510091129 79 338 5.0 13.0 0.00 0.00 0.00 36 1016.0
20260510090133 79 355 5.0 12.0 0.00 0.00 0.00 35 1015.9
20260510085448 79 292 5.0 11.0 0.00 0.00 0.00 35 1015.9
20260510085129 78 316 6.0 14.0 0.00 0.00 0.00 35 1015.9
20260510084447 79 355 5.0 14.0 0.00 0.00 0.00 35 1015.9
20260510083449 78 5 4.0 11.0 0.00 0.00 0.00 35 1016.0
20260510083120 78 5 4.0 13.0 0.00 0.00 0.00 33 1016.1
20260510081447 78 324 3.0 9.0 0.00 0.00 0.00 34 1016.3
20260510081120 78 26 5.0 10.0 0.00 0.00 0.00 33 1016.3
20260510080447 78 339 6.0 13.0 0.00 0.00 0.00 31 1016.3
20260510080119 79 347 5.0 13.0 0.00 0.00 0.00 31 1016.3
20260510075114 78 9 4.0 11.0 0.00 0.00 0.00 32 1016.2
20260510074441 78 5 4.0 10.0 0.00 0.00 0.00 30 1016.3
20260510074116 78 5 5.0 10.0 0.00 0.00 0.00 29 1016.2
20260510073441 78 345 5.0 11.0 0.00 0.00 0.00 28 1016.2
20260510072441 78 5 3.0 11.0 0.00 0.00 0.00 28 1016.1
20260510072108 77 30 4.0 10.0 0.00 0.00 0.00 27 1016.1
20260510071440 77 5 4.0 10.0 0.00 0.00 0.00 27 1016.1
20260510071110 77 32 4.0 9.0 0.00 0.00 0.00 27 1016.2
20260510070434 77 25 4.0 9.0 0.00 0.00 0.00 29 1016.2
20260510070111 77 36 4.0 11.0 0.00 0.00 0.00 28 1016.1
20260510065437 77 38 4.0 11.0 0.00 0.00 0.00 27 1016.2
20260510065114 76 13 3.0 9.0 0.00 0.00 0.00 28 1016.2
20260510064108 76 24 3.0 10.0 0.00 0.00 0.00 28 1016.1
20260510063432 76 5 4.0 10.0 0.00 0.00 0.00 26 1016.2
20260510062432 76 15 4.0 9.0 0.00 0.00 0.00 26 1016.2
20260510062102 75 344 4.0 10.0 0.00 0.00 0.00 27 1016.1
20260510061427 75 14 4.0 10.0 0.00 0.00 0.00 28 1016.0
20260510061059 75 5 4.0 9.0 0.00 0.00 0.00 29 1016.0
20260510060104 74 333 3.0 8.0 0.00 0.00 0.00 29 1016.0
20260510055421 74 34 4.0 10.0 0.00 0.00 0.00 30 1016.0
20260510055100 74 326 4.0 10.0 0.00 0.00 0.00 29 1015.9
20260510054423 73 348 4.0 11.0 0.00 0.00 0.00 30 1015.8
20260510054058 73 0 4.0 13.0 0.00 0.00 0.00 29 1015.9
20260510053422 73 35 4.0 13.0 0.00 0.00 0.00 30 1015.9
20260510053054 72 56 3.0 9.0 0.00 0.00 0.00 31 1016.0
20260510052419 72 32 4.0 9.0 0.00 0.00 0.00 32 1015.9
20260510052056 72 0 4.0 10.0 0.00 0.00 0.00 32 1015.9
20260510051417 71 5 4.0 11.0 0.00 0.00 0.00 33 1015.9
20260510051053 71 38 4.0 11.0 0.00 0.00 0.00 34 1015.9
20260510050418 71 13 3.0 8.0 0.00 0.00 0.00 34 1015.9
20260510050051 70 24 4.0 8.0 0.00 0.00 0.00 35 1015.8
20260510045049 69 5 3.0 10.0 0.00 0.00 0.00 36 1015.9
20260510044049 69 26 3.0 10.0 0.00 0.00 0.00 37 1015.8
20260510042414 68 355 4.0 10.0 0.00 0.00 0.00 37 1015.8
20260510042041 67 24 4.0 10.0 0.00 0.00 0.00 37 1015.8
20260510041412 67 355 4.0 10.0 0.00 0.00 0.00 37 1015.8
20260510041045 66 20 5.0 10.0 0.00 0.00 0.00 38 1015.9
20260510040411 66 333 5.0 10.0 0.00 0.00 0.00 38 1015.8
20260510040046 66 49 4.0 11.0 0.00 0.00 0.00 38 1015.8
20260510035411 65 36 5.0 12.0 0.00 0.00 0.00 39 1015.7
20260510034039 63 11 4.0 13.0 0.00 0.00 0.00 44 1015.4
20260510033037 63 355 3.0 10.0 0.00 0.00 0.00 47 1015.7
20260510032403 63 341 4.0 11.0 0.00 0.00 0.00 47 1015.4
20260510032033 63 331 4.0 11.0 0.00 0.00 0.00 46 1015.4
20260510031402 63 355 3.0 6.0 0.00 0.00 0.00 46 1015.4
20260510031034 63 328 4.0 9.0 0.00 0.00 0.00 46 1015.5
20260510030352 63 5 5.0 9.0 0.00 0.00 0.00 46 1015.5
20260510030031 63 0 5.0 10.0 0.00 0.00 0.00 45 1015.5
20260510025349 63 5 5.0 10.0 0.00 0.00 0.00 45 1015.5
20260510025032 63 351 5.0 11.0 0.00 0.00 0.00 45 1015.4
20260510024029 63 355 6.0 13.0 0.00 0.00 0.00 45 1015.4
20260510023341 64 0 7.0 14.0 0.00 0.00 0.00 45 1015.4
20260510023023 64 9 8.0 14.0 0.00 0.00 0.00 45 1015.3
20260510022338 64 355 6.0 12.0 0.00 0.00 0.00 44 1015.2
20260510022019 64 0 6.0 13.0 0.00 0.00 0.00 44 1015.3
20260510021329 64 350 7.0 14.0 0.00 0.00 0.00 45 1015.3
20260510021019 64 355 6.0 14.0 0.00 0.00 0.00 44 1015.3
20260510020326 64 34 6.0 12.0 0.00 0.00 0.00 44 1015.3
20260510020021 64 344 6.0 11.0 0.00 0.00 0.00 44 1015.2
20260510015323 64 12 7.0 13.0 0.00 0.00 0.00 44 1015.3
20260510015014 64 24 6.0 13.0 0.00 0.00 0.00 44 1015.3
20260510014322 64 355 6.0 12.0 0.00 0.00 0.00 44 1015.2
20260510014013 64 5 6.0 12.0 0.00 0.00 0.00 44 1015.2
20260510013319 64 348 4.0 10.0 0.00 0.00 0.00 46 1015.2
20260510013013 64 9 4.0 9.0 0.00 0.00 0.00 46 1015.2
20260510012316 64 355 5.0 10.0 0.00 0.00 0.00 46 1015.2
20260510012010 64 0 5.0 11.0 0.00 0.00 0.00 46 1015.2
20260510011315 64 13 5.0 11.0 0.00 0.00 0.00 47 1015.2
20260510011006 63 355 5.0 9.0 0.00 0.00 0.00 47 1015.3
20260510010308 63 21 6.0 10.0 0.00 0.00 0.00 47 1015.2
20260510010006 63 32 5.0 10.0 0.00 0.00 0.00 47 1015.2
20260510005310 63 331 4.0 9.0 0.00 0.00 0.00 48 1015.2
20260510005005 63 9 4.0 9.0 0.00 0.00 0.00 48 1015.2
20260510004307 63 15 3.0 10.0 0.00 0.00 0.00 49 1015.2
20260510004003 63 20 4.0 10.0 0.00 0.00 0.00 49 1015.3
20260510002308 63 9 4.0 10.0 0.00 0.00 0.00 50 1015.3
20260510001956 63 24 3.0 9.0 0.00 0.00 0.00 50 1015.3
20260510001309 63 39 2.0 9.0 0.00 0.00 0.00 49 1015.4
20260510000958 63 0 5.0 13.0 0.00 0.00 0.00 49 1015.5
20260510000307 63 0 7.0 13.0 0.00 0.00 0.00 48 1015.4
20260509235954 63 344 6.0 13.0 0.00 0.00 0.00 47 1015.4
20260509235307 63 311 5.0 11.0 0.00 0.00 0.00 46 1015.7
20260509234952 64 355 4.0 11.0 0.00 0.00 0.00 46 1015.7
20260509233952 64 355 4.0 10.0 0.00 0.00 0.00 45 1015.7
20260509233308 64 37 5.0 10.0 0.00 0.00 0.00 44 1015.5
20260509232308 64 22 6.0 12.0 0.00 0.00 0.00 44 1015.5
20260509231947 64 22 7.0 13.0 0.00 0.00 0.00 44 1015.4
20260509231307 64 35 6.0 13.0 0.00 0.00 0.00 45 1015.4
20260509230947 64 24 6.0 12.0 0.00 0.00 0.00 47 1015.4
20260509230309 64 15 4.0 12.0 0.00 0.00 0.00 48 1015.4
20260509225308 63 350 3.0 10.0 0.00 0.00 0.00 50 1015.7
20260509224944 64 343 1.0 10.0 0.00 0.00 0.00 50 1015.8
20260509224307 64 327 0.0 4.0 0.00 0.00 0.00 49 1015.8
20260509223940 64 5 1.0 3.0 0.00 0.00 0.00 49 1015.9
20260509223304 64 0 2.0 6.0 0.00 0.00 0.00 49 1015.8
20260509222307 64 292 4.0 9.0 0.00 0.00 0.00 49 1015.8
20260509221305 64 310 4.0 9.0 0.00 0.00 0.00 51 1015.7
20260509220935 64 335 3.0 8.0 0.00 0.00 0.00 52 1015.8
20260509220305 64 355 3.0 8.0 0.00 0.00 0.00 53 1015.9
20260509215934 64 325 2.0 8.0 0.00 0.00 0.00 54 1015.8
20260509215301 64 281 3.0 8.0 0.00 0.00 0.00 54 1016.0
20260509214934 64 291 3.0 6.0 0.00 0.00 0.00 53 1016.0
20260509214303 64 312 2.0 6.0 0.00 0.00 0.00 53 1016.0
20260509213300 64 288 2.0 5.0 0.00 0.00 0.00 53 1016.0
20260509212929 64 304 3.0 6.0 0.00 0.00 0.00 53 1015.9
20260509212300 64 335 3.0 8.0 0.00 0.00 0.00 53 1016.0
20260509211932 64 319 4.0 9.0 0.00 0.00 0.00 53 1016.0
20260509211300 64 336 4.0 9.0 0.00 0.00 0.00 53 1016.0
20260509210931 65 344 4.0 9.0 0.00 0.00 0.00 53 1016.0
20260509210256 65 328 4.0 8.0 0.00 0.00 0.00 53 1016.0
20260509205929 65 300 4.0 9.0 0.00 0.00 0.00 52 1016.0
20260509205255 65 329 4.0 9.0 0.00 0.00 0.00 51 1016.1
20260509204927 65 297 4.0 8.0 0.00 0.00 0.00 50 1016.2
20260509204255 66 320 5.0 10.0 0.00 0.00 0.00 49 1016.2
20260509203924 66 336 5.0 11.0 0.00 0.00 0.00 48 1016.2
20260509203257 66 12 4.0 11.0 0.00 0.00 0.00 47 1016.2
20260509202921 65 0 4.0 9.0 0.00 0.00 0.00 47 1016.2
20260509202256 65 329 3.0 9.0 0.00 0.00 0.00 48 1016.2
20260509201921 65 330 3.0 9.0 0.00 0.00 0.00 49 1016.2
20260509201255 65 319 3.0 6.0 0.00 0.00 0.00 51 1016.2
20260509200918 64 306 3.0 8.0 0.00 0.00 0.00 52 1016.2
20260509195919 64 309 2.0 6.0 0.00 0.00 0.00 55 1016.2
20260509195249 64 325 2.0 7.0 0.00 0.00 0.00 56 1016.0
20260509194915 64 317 3.0 8.0 0.00 0.00 0.00 57 1016.1
20260509193245 64 311 3.0 8.0 0.00 0.00 0.00 61 1016.2
20260509192909 64 294 3.0 8.0 0.00 0.00 0.00 62 1016.2
20260509191908 64 304 3.0 8.0 0.00 0.00 0.00 65 1016.2
20260509190906 64 290 3.0 5.0 0.00 0.00 0.00 67 1016.2
20260509190238 63 0 3.0 8.0 0.00 0.00 0.00 68 1016.2
20260509185905 64 332 3.0 8.0 0.00 0.00 0.00 69 1016.2
20260509185230 64 322 3.0 8.0 0.00 0.00 0.00 70 1016.2
20260509184904 64 299 2.0 5.0 0.00 0.00 0.00 70 1016.2
20260509184231 64 320 2.0 8.0 0.00 0.00 0.00 70 1016.2
20260509183900 64 0 3.0 8.0 0.00 0.00 0.00 69 1016.1
20260509183227 65 342 2.0 6.0 0.00 0.00 0.00 69 1016.2
20260509182857 65 315 2.0 7.0 0.00 0.00 0.00 68 1016.2
20260509182230 65 332 3.0 9.0 0.00 0.00 0.00 67 1016.2
20260509181858 65 296 3.0 9.0 0.00 0.00 0.00 67 1016.2
20260509181221 65 296 3.0 6.0 0.00 0.00 0.00 66 1016.2
20260509180856 65 5 3.0 8.0 0.00 0.00 0.00 65 1016.3
20260509180221 66 321 3.0 8.0 0.00 0.00 0.00 65 1016.2
20260509175219 66 9 4.0 9.0 0.00 0.00 0.00 63 1016.1
20260509174853 66 343 5.0 9.0 0.00 0.00 0.00 63 1016.1
20260509174220 66 314 5.0 9.0 0.00 0.00 0.00 62 1016.0
20260509173854 66 346 5.0 9.0 0.00 0.00 0.00 62 1016.0
20260509173219 67 323 4.0 8.0 0.00 0.00 0.00 61 1016.0
20260509172850 67 329 4.0 8.0 0.00 0.00 0.00 61 1015.8
20260509171844 67 314 5.0 10.0 0.00 0.00 0.00 60 1015.8
20260509171224 67 311 5.0 10.0 0.00 0.00 0.00 60 1015.7
20260509170848 68 0 5.0 10.0 0.00 0.00 0.00 59 1015.7
20260509170211 68 337 6.0 11.0 0.00 0.00 0.00 58 1015.7
20260509165845 68 334 6.0 11.0 0.00 0.00 0.00 56 1015.7
20260509165211 69 323 5.0 10.0 0.00 0.00 0.00 55 1015.5
20260509164847 69 300 4.0 10.0 0.00 0.00 0.00 53 1015.5
20260509164211 69 329 4.0 9.0 0.00 0.00 0.00 51 1015.5
20260509163210 70 292 5.0 10.0 0.00 0.00 0.00 49 1015.5
20260509162843 70 336 5.0 11.0 0.00 0.00 0.00 48 1015.4
20260509161837 71 313 6.0 13.0 0.00 0.00 0.00 46 1015.3
20260509161159 71 19 7.0 15.0 0.00 0.00 0.00 45 1015.1
20260509160154 71 13 6.0 14.0 0.00 0.00 0.00 45 1015.1
20260509155833 71 313 6.0 12.0 0.00 0.00 0.00 45 1015.1
20260509154833 72 345 5.0 14.0 0.00 0.00 0.00 45 1015.1
20260509154155 72 317 6.0 12.0 0.00 0.00 0.00 45 1015.0
20260509153152 73 326 7.0 13.0 0.00 0.00 0.00 45 1015.1
20260509152827 73 0 7.0 14.0 0.00 0.00 0.00 44 1015.0
20260509151149 74 324 7.0 13.0 0.00 0.00 0.00 44 1014.9
20260509150830 74 355 7.0 16.0 0.00 0.00 0.00 44 1014.7
20260509145142 75 336 7.0 13.0 0.00 0.00 0.00 45 1014.7
20260509144822 75 339 6.0 13.0 0.00 0.00 0.00 46 1014.6
20260509144147 75 341 6.0 11.0 0.00 0.00 0.00 46 1014.6
20260509143824 75 299 6.0 11.0 0.00 0.00 0.00 47 1014.6
20260509143140 75 32 5.0 13.0 0.00 0.00 0.00 47 1014.6
20260509142824 76 26 6.0 13.0 0.00 0.00 0.00 48 1014.6
20260509142133 76 343 7.0 12.0 0.00 0.00 0.00 49 1014.5
20260509141818 76 355 6.0 13.0 0.00 0.00 0.00 50 1014.5
20260509140815 76 309 6.0 13.0 0.00 0.00 0.00 51 1014.6
20260509140128 76 330 6.0 14.0 0.00 0.00 0.00 52 1014.4
20260509135816 76 313 6.0 14.0 0.00 0.00 0.00 53 1014.6
20260509135127 77 0 6.0 13.0 0.00 0.00 0.00 52 1014.5
20260509134814 77 48 6.0 11.0 0.00 0.00 0.00 53 1014.6
20260509134125 77 314 6.0 11.0 0.00 0.00 0.00 53 1014.7
20260509133809 77 19 6.0 11.0 0.00 0.00 0.00 53 1014.7
20260509133127 77 321 6.0 13.0 0.00 0.00 0.00 53 1014.7
20260509132809 77 25 6.0 12.0 0.00 0.00 0.00 55 1014.7
20260509132122 77 9 5.0 12.0 0.00 0.00 0.00 55 1014.7
20260509131121 78 331 6.0 13.0 0.00 0.00 0.00 56 1014.6
20260509130808 78 39 5.0 13.0 0.00 0.00 0.00 57 1014.7
20260509130115 78 5 6.0 11.0 0.00 0.00 0.00 57 1014.7
20260509125802 78 318 5.0 10.0 0.00 0.00 0.00 58 1014.8
20260509125115 78 347 5.0 11.0 0.00 0.00 0.00 58 1014.8
20260509123805 79 339 4.0 8.0 0.00 0.00 0.00 56 1014.8
20260509123116 79 23 4.0 9.0 0.00 0.00 0.00 56 1014.7
20260509122801 79 338 4.0 9.0 0.00 0.00 0.00 55 1014.8
20260509122112 79 355 4.0 10.0 0.00 0.00 0.00 55 1014.7
20260509121758 79 336 3.0 10.0 0.00 0.00 0.00 54 1014.7
20260509121112 79 350 3.0 7.0 0.00 0.00 0.00 55 1014.7
20260509120800 79 0 3.0 9.0 0.00 0.00 0.00 54 1014.8
20260509120116 79 12 3.0 9.0 0.00 0.00 0.00 53 1014.8
20260509115110 79 355 4.0 10.0 0.00 0.00 0.00 53 1014.7
20260509114752 78 21 3.0 10.0 0.00 0.00 0.00 53 1014.9
20260509114114 78 355 2.0 6.0 0.00 0.00 0.00 52 1014.9
20260509113750 78 43 2.0 5.0 0.00 0.00 0.00 52 1014.9
20260509113111 78 280 3.0 9.0 0.00 0.00 0.00 52 1015.1
20260509112749 79 32 3.0 9.0 0.00 0.00 0.00 51 1015.0
20260509112113 79 0 4.0 9.0 0.00 0.00 0.00 51 1015.1
20260509111748 78 30 4.0 9.0 0.00 0.00 0.00 51 1015.2
20260509110742 78 21 3.0 10.0 0.00 0.00 0.00 50 1015.3
20260509110111 79 25 2.0 8.0 0.00 0.00 0.00 50 1015.3
20260509105744 78 0 1.0 7.0 0.00 0.00 0.00 49 1015.3
20260509105108 79 0 2.0 7.0 0.00 0.00 0.00 49 1015.3
20260509104743 78 24 2.0 9.0 0.00 0.00 0.00 50 1015.4
20260509104109 78 355 2.0 9.0 0.00 0.00 0.00 52 1015.5
20260509103741 78 26 3.0 9.0 0.00 0.00 0.00 51 1015.5
20260509103108 78 345 3.0 8.0 0.00 0.00 0.00 52 1015.4
20260509102741 77 14 3.0 9.0 0.00 0.00 0.00 52 1015.4
20260509101737 78 274 2.0 8.0 0.00 0.00 0.00 53 1015.5